Regional Weather Roundup
Issued by NWS

Home | Current Version | Previous Version | Text Only | Print | Product List | Glossary Off
Versions: 1 2 3 4 5 6 7 8 9 10 11 12 13 14 15 16 17 18 19 20 21 22 23 24 25 26 27 28 29 30 31 32 33 34 35 36 37 38 39 40 41 42 43 44 45 46 47 48 49 50

000
ASUS43 KFSD 240602
RWRSD

WEATHER ROUNDUP FOR SOUTH DAKOTA
NATIONAL WEATHER SERVICE SIOUX FALLS SD
100 AM CDT SUN SEP 24 2017

NOTE: "FAIR" INDICATES FEW OR NO CLOUDS BELOW 12,000 FEET WITH NO
SIGNIFICANT WEATHER AND/OR OBSTRUCTIONS TO VISIBILITY.


SDZ001>005-009-010-012>017-240700-
NORTHWEST AND NORTH CENTRAL SOUTH DAKOTA

CITY           SKY/WX    TMP DP  RH WIND       PRES   REMARKS
BUFFALO          N/A     45  43  93 NE12      29.98F
FAITH            N/A     46  46 100 N17       29.98F
MOBRIDGE       LGT RAIN  53  52  96 N10       29.94S FOG
$$

SDZ012>016-024>037-041>051-057-063-072>074-240700-
SOUTHWEST AND SOUTH CENTRAL SOUTH DAKOTA

CITY           SKY/WX    TMP DP  RH WIND       PRES   REMARKS
RAPID CTY ARPT NOT AVBL
PIERRE         LGT RAIN  52  50  93 NW8       29.92S
CUSTER         LGT RAIN  39  37  92 NE7       29.96F
ELLSWORTH AFB  CLOUDY    45  45 100 N13       30.00R
PHILIP         RAIN      49  49 100 N12       29.95F
PINE RIDGE     CLOUDY    47  46  97 N6        29.98S
SPEARFISH      CLOUDY    43  43 100 NE6       30.00F FOG
WINNER         RAIN      52  51  97 N7        29.93S
$$

SDZ004>011-016>023-039-040-240700-
NORTHEAST SOUTH DAKOTA

CITY           SKY/WX    TMP DP  RH WIND       PRES   REMARKS
ABERDEEN       LGT RAIN  54  54 100 N9        29.89F
WATERTOWN      CLOUDY    59  59 100 E9        29.89F
BROOKINGS      CLOUDY    58  56  93 E8        29.92F
SISSETON         N/A     56  56 100 S6        29.91F
$$

SDZ017-020-022-023-036>040-048>070-240700-
SOUTHEAST SOUTH DAKOTA

CITY           SKY/WX    TMP DP  RH WIND       PRES   REMARKS
SIOUX FALLS    CLOUDY    59  58  96 NE10      29.92S
HURON          RAIN      56  56 100 NW7       29.87S FOG
CHAMBERLAIN    RAIN      54  54 100 N8        29.91F
MITCHELL       LGT RAIN  61  60  97 SE5       29.87F
YANKTON        PTCLDY    59  58  96 E7        29.88F
$$

ABBREVIATIONS USED IN REMARKS
   TC - TEMPERATURE IN CELSIUS
  WCI - WIND CHILL INDEX
   HX - HEAT INDEX
  VSB - VISIBILITY





USA.gov is the U.S. government's official web portal to all federal, state and local government web resources and services.